Time,TemperatureF,DewpointF,PressureIn,WindDirection,WindDirectionDegrees,WindSpeedMPH,WindSpeedGustMPH,Humidity,HourlyPrecipIn,Conditions,Clouds,dailyrainin,SoftwareType,DateUTC
2013-03-24 00:00:00,-7.2,-12.8,30.07,North,0,0.0,0.0,76,0.00,CLR,,0.00,WeatherDisplay:10.37,2013-03-24 08:00:00,
2013-03-24 00:09:00,-7.4,-12.5,30.07,North,0,0.0,0.0,78,0.00,CLR,,0.00,WeatherDisplay:10.37,2013-03-24 08:09:00,
2013-03-24 00:14:00,-7.4,-11.2,30.07,North,0,0.0,0.0,83,0.00,CLR,,0.00,WeatherDisplay:10.37,2013-03-24 08:14:00,
2013-03-24 00:19:00,-7.4,-13.0,30.07,North,0,0.0,0.0,76,0.00,CLR,,0.00,WeatherDisplay:10.37,2013-03-24 08:19:00,
2013-03-24 00:24:00,-7.4,-12.7,30.07,North,0,0.0,0.0,77,0.00,CLR,,0.00,WeatherDisplay:10.37,2013-03-24 08:24:00,
2013-03-24 00:30:00,-7.2,-13.9,30.06,North,0,0.0,0.0,72,0.00,CLR,,0.00,WeatherDisplay:10.37,2013-03-24 08:30:00,
2013-03-24 00:39:00,-6.9,-11.7,30.06,North,0,0.0,0.0,79,0.00,CLR,,0.00,WeatherDisplay:10.37,2013-03-24 08:39:00,
2013-03-24 00:45:00,-7.2,-10.6,30.06,North,0,0.0,0.0,85,0.00,CLR,,0.00,WeatherDisplay:10.37,2013-03-24 08:45:00,
2013-03-24 00:54:00,-6.9,-12.2,30.06,North,0,0.0,0.0,77,0.00,CLR,,0.00,WeatherDisplay:10.37,2013-03-24 08:54:00,
2013-03-24 01:00:00,-7.1,-12.9,30.06,North,0,0.0,0.0,75,0.00,CLR,,0.00,WeatherDisplay:10.37,2013-03-24 09:00:00,
2013-03-24 01:05:00,-7.2,-13.1,30.06,North,0,0.0,0.0,75,0.00,CLR,,0.00,WeatherDisplay:10.37,2013-03-24 09:05:00,
2013-03-24 01:15:00,-7.2,-13.1,30.06,North,0,0.0,0.0,75,0.00,CLR,,0.00,WeatherDisplay:10.37,2013-03-24 09:15:00,
2013-03-24 01:25:00,-7.7,-12.8,30.06,North,0,0.0,0.0,78,0.00,CLR,,0.00,WeatherDisplay:10.37,2013-03-24 09:25:00,
2013-03-24 01:30:00,-7.8,-12.8,30.06,North,0,0.0,0.0,78,0.00,CLR,,0.00,WeatherDisplay:10.37,2013-03-24 09:30:00,
2013-03-24 01:35:00,-7.5,-12.5,30.06,North,0,0.0,0.0,78,0.00,CLR,,0.00,WeatherDisplay:10.37,2013-03-24 09:35:00,
2013-03-24 01:40:00,-7.4,-12.7,30.06,North,0,0.0,0.0,77,0.00,CLR,,0.00,WeatherDisplay:10.37,2013-03-24 09:40:00,
2013-03-24 01:45:00,-7.4,-12.5,30.06,North,0,0.0,0.0,78,0.00,CLR,,0.00,WeatherDisplay:10.37,2013-03-24 09:45:00,
2013-03-24 01:55:00,-7.4,-12.5,30.05,North,0,0.0,0.0,78,0.00,CLR,,0.00,WeatherDisplay:10.37,2013-03-24 09:55:00,
2013-03-24 02:00:00,-7.2,-11.5,30.06,North,0,0.0,0.0,81,0.00,CLR,,0.00,WeatherDisplay:10.37,2013-03-24 10:00:00,
2013-03-24 02:10:00,-7.2,-12.3,30.05,North,0,0.0,0.0,78,0.00,CLR,,0.00,WeatherDisplay:10.37,2013-03-24 10:10:00,
2013-03-24 02:15:00,-7.2,-12.3,30.05,North,0,0.0,0.0,78,0.00,CLR,,0.00,WeatherDisplay:10.37,2013-03-24 10:15:00,
2013-03-24 02:25:00,-7.8,-11.6,30.05,North,0,0.0,0.0,83,0.00,CLR,,0.00,WeatherDisplay:10.37,2013-03-24 10:25:00,
2013-03-24 02:30:00,-7.8,-12.6,30.04,North,0,0.0,0.0,79,0.00,CLR,,0.00,WeatherDisplay:10.37,2013-03-24 10:30:00,
2013-03-24 02:40:00,-7.8,-12.6,30.04,North,0,0.0,0.0,79,0.00,CLR,,0.00,WeatherDisplay:10.37,2013-03-24 10:40:00,
2013-03-24 02:45:00,-7.7,-12.7,30.04,North,0,0.0,0.0,78,0.00,CLR,,0.00,WeatherDisplay:10.37,2013-03-24 10:45:00,
2013-03-24 02:55:00,-8.0,-13.0,30.04,North,0,0.0,0.0,78,0.00,CLR,,0.00,WeatherDisplay:10.37,2013-03-24 10:55:00,
2013-03-24 03:00:00,-8.2,-13.4,30.04,North,0,0.0,0.0,77,0.00,CLR,,0.00,WeatherDisplay:10.37,2013-03-24 11:00:00,
2013-03-24 03:05:00,-8.3,-13.1,30.04,North,0,0.0,0.0,79,0.00,CLR,,0.00,WeatherDisplay:10.37,2013-03-24 11:05:00,
2013-03-24 03:10:00,-8.1,-9.6,30.04,North,0,0.0,0.0,93,0.00,CLR,,0.00,WeatherDisplay:10.37,2013-03-24 11:10:00,
2013-03-24 03:15:00,-8.2,-11.8,30.03,North,0,0.0,0.0,84,0.00,CLR,,0.00,WeatherDisplay:10.37,2013-03-24 11:15:00,
2013-03-24 03:25:00,-8.1,-12.7,30.03,North,0,0.0,0.0,80,0.00,CLR,,0.00,WeatherDisplay:10.37,2013-03-24 11:25:00,
2013-03-24 03:30:00,-8.0,-12.2,30.03,North,0,0.0,0.0,81,0.00,CLR,,0.00,WeatherDisplay:10.37,2013-03-24 11:30:00,
2013-03-24 03:35:00,-8.1,-12.9,30.03,North,0,0.0,0.0,79,0.00,CLR,,0.00,WeatherDisplay:10.37,2013-03-24 11:35:00,
2013-03-24 03:40:00,-8.1,-13.2,30.03,North,0,0.0,0.0,78,0.00,CLR,,0.00,WeatherDisplay:10.37,2013-03-24 11:40:00,
2013-03-24 03:45:00,-8.1,-12.4,30.02,North,0,0.0,0.0,81,0.00,CLR,,0.00,WeatherDisplay:10.37,2013-03-24 11:45:00,
2013-03-24 03:55:00,-8.1,-13.2,30.02,North,0,0.0,0.0,78,0.00,CLR,,0.00,WeatherDisplay:10.37,2013-03-24 11:55:00,
2013-03-24 04:00:00,-8.1,-13.7,30.02,North,0,0.0,0.0,76,0.00,CLR,,0.00,WeatherDisplay:10.37,2013-03-24 12:00:00,
2013-03-24 04:05:00,-8.1,-13.2,30.02,North,0,0.0,0.0,78,0.00,CLR,,0.00,WeatherDisplay:10.37,2013-03-24 12:05:00,
2013-03-24 04:10:00,-8.1,-13.2,30.02,North,0,0.0,0.0,78,0.00,CLR,,0.00,WeatherDisplay:10.37,2013-03-24 12:10:00,
2013-03-24 04:15:00,-7.8,-13.9,30.02,North,0,0.0,0.0,74,0.00,CLR,,0.00,WeatherDisplay:10.37,2013-03-24 12:15:00,
2013-03-24 04:20:00,-7.6,-12.4,30.02,North,0,0.0,0.0,79,0.00,CLR,,0.00,WeatherDisplay:10.37,2013-03-24 12:20:00,
2013-03-24 04:25:00,-7.5,-12.0,30.02,North,0,0.0,0.0,80,0.00,CLR,,0.00,WeatherDisplay:10.37,2013-03-24 12:25:00,
2013-03-24 04:30:00,-7.7,-12.5,30.01,North,0,0.0,0.0,79,0.00,CLR,,0.00,WeatherDisplay:10.37,2013-03-24 12:30:00,
2013-03-24 04:35:00,-7.7,-12.5,30.01,North,0,0.0,0.0,79,0.00,CLR,,0.00,WeatherDisplay:10.37,2013-03-24 12:35:00,
2013-03-24 04:40:00,-7.4,-12.7,30.01,North,0,0.0,0.0,77,0.00,CLR,,0.00,WeatherDisplay:10.37,2013-03-24 12:40:00,
2013-03-24 04:50:00,-6.9,-11.9,30.01,North,0,0.0,0.0,78,0.00,CLR,,0.00,WeatherDisplay:10.37,2013-03-24 12:50:00,
2013-03-24 04:55:00,-7.1,-12.6,30.01,North,0,0.0,0.0,76,0.00,CLR,,0.00,WeatherDisplay:10.37,2013-03-24 12:55:00,
2013-03-24 05:00:00,-7.2,-12.3,30.00,North,0,0.0,0.0,78,0.00,CLR,,0.00,WeatherDisplay:10.37,2013-03-24 13:00:00,
2013-03-24 05:10:00,-7.6,-12.1,30.00,North,0,0.0,0.0,80,0.00,CLR,,0.00,WeatherDisplay:10.37,2013-03-24 13:10:00,
2013-03-24 05:15:00,-7.6,-12.9,30.00,North,0,0.0,0.0,77,0.00,CLR,,0.00,WeatherDisplay:10.37,2013-03-24 13:15:00,
2013-03-24 05:25:00,-8.2,-11.5,30.00,North,0,0.0,0.0,85,0.00,CLR,,0.00,WeatherDisplay:10.37,2013-03-24 13:25:00,
2013-03-24 05:30:00,-8.3,-13.3,30.00,North,0,0.0,0.0,78,0.00,CLR,,0.00,WeatherDisplay:10.37,2013-03-24 13:30:00,
2013-03-24 05:40:00,-8.1,-13.2,29.99,North,0,0.0,0.0,78,0.00,CLR,,0.00,WeatherDisplay:10.37,2013-03-24 13:40:00,
2013-03-24 05:45:00,-8.1,-13.9,29.99,North,0,0.0,0.0,75,0.00,CLR,,0.00,WeatherDisplay:10.37,2013-03-24 13:45:00,
2013-03-24 05:50:00,-8.2,-12.2,29.99,North,0,0.0,0.0,82,0.00,CLR,,0.00,WeatherDisplay:10.37,2013-03-24 13:50:00,
2013-03-24 05:55:00,-8.3,-13.1,29.99,North,0,0.0,0.0,79,0.00,CLR,,0.00,WeatherDisplay:10.37,2013-03-24 13:55:00,
2013-03-24 06:00:00,-8.3,-13.3,29.99,North,0,0.0,0.0,78,0.00,CLR,,0.00,WeatherDisplay:10.37,2013-03-24 14:00:00,
2013-03-24 06:10:00,-8.3,-13.6,29.98,North,0,0.0,0.0,77,0.00,CLR,,0.00,WeatherDisplay:10.37,2013-03-24 14:10:00,
2013-03-24 06:15:00,-8.3,-13.3,29.98,North,0,0.0,0.0,78,0.00,CLR,,0.00,WeatherDisplay:10.37,2013-03-24 14:15:00,
2013-03-24 06:20:00,-8.5,-13.5,29.98,North,0,0.0,0.0,78,0.00,CLR,,0.00,WeatherDisplay:10.37,2013-03-24 14:20:00,
2013-03-24 06:25:00,-8.7,-12.9,29.98,North,0,0.0,0.0,81,0.00,CLR,,0.00,WeatherDisplay:10.37,2013-03-24 14:25:00,
2013-03-24 06:30:00,-8.5,-13.5,29.98,North,0,0.0,0.0,78,0.00,CLR,,0.00,WeatherDisplay:10.37,2013-03-24 14:30:00,
2013-03-24 06:40:00,-8.9,-14.1,29.99,North,0,0.0,0.0,77,0.00,CLR,,0.00,WeatherDisplay:10.37,2013-03-24 14:40:00,
2013-03-24 06:45:00,-9.0,-13.5,29.98,North,0,0.0,0.0,80,0.00,CLR,,0.00,WeatherDisplay:10.37,2013-03-24 14:45:00,
2013-03-24 06:55:00,-9.0,-14.3,29.99,North,0,0.0,0.0,77,0.00,CLR,,0.00,WeatherDisplay:10.37,2013-03-24 14:55:00,
2013-03-24 07:00:00,-9.2,-14.2,29.99,North,0,0.0,0.0,78,0.00,CLR,,0.00,WeatherDisplay:10.37,2013-03-24 15:00:00,
2013-03-24 07:10:00,-9.2,-14.2,29.98,North,0,0.0,0.0,78,0.00,CLR,,0.00,WeatherDisplay:10.37,2013-03-24 15:10:00,
2013-03-24 07:15:00,-9.0,-14.3,29.98,North,0,0.0,0.0,77,0.00,CLR,,0.00,WeatherDisplay:10.37,2013-03-24 15:15:00,
2013-03-24 07:25:00,-8.7,-13.7,29.98,North,0,0.0,0.0,78,0.00,CLR,,0.00,WeatherDisplay:10.37,2013-03-24 15:25:00,
2013-03-24 07:30:00,-8.7,-14.5,29.98,North,0,0.0,0.0,75,0.00,CLR,,0.00,WeatherDisplay:10.37,2013-03-24 15:30:00,
2013-03-24 07:35:00,-8.7,-12.7,29.98,North,0,0.0,0.0,82,0.00,CLR,,0.00,WeatherDisplay:10.37,2013-03-24 15:35:00,
2013-03-24 07:40:00,-8.3,-11.9,29.98,North,0,0.0,0.0,84,0.00,CLR,,0.00,WeatherDisplay:10.37,2013-03-24 15:40:00,
2013-03-24 07:45:00,-8.3,-12.5,29.97,North,0,0.0,0.0,81,0.00,CLR,,0.00,WeatherDisplay:10.37,2013-03-24 15:45:00,
2013-03-24 07:55:00,-8.1,-13.4,29.97,North,0,2.0,0.0,77,0.00,CLR,,0.00,WeatherDisplay:10.37,2013-03-24 15:55:00,
2013-03-24 08:00:00,-8.0,-13.0,29.97,North,0,1.0,0.0,78,0.00,CLR,,0.00,WeatherDisplay:10.37,2013-03-24 16:00:00,
2013-03-24 08:10:00,-8.0,-12.5,29.97,North,0,1.0,0.0,80,0.00,CLR,,0.00,WeatherDisplay:10.37,2013-03-24 16:10:00,
2013-03-24 08:15:00,-7.8,-13.3,29.96,North,0,1.0,0.0,76,0.00,CLR,,0.00,WeatherDisplay:10.37,2013-03-24 16:15:00,
2013-03-24 08:25:00,-7.4,-13.2,29.96,North,0,1.0,0.0,75,0.00,CLR,,0.00,WeatherDisplay:10.37,2013-03-24 16:25:00,
2013-03-24 08:30:00,-7.2,-13.3,29.96,North,0,1.0,0.0,74,0.00,CLR,,0.00,WeatherDisplay:10.37,2013-03-24 16:30:00,
2013-03-24 08:40:00,-6.0,-11.8,29.96,North,0,0.0,0.0,75,0.00,CLR,,0.00,WeatherDisplay:10.37,2013-03-24 16:40:00,
2013-03-24 08:45:00,-5.5,-10.9,29.96,North,0,0.0,0.0,77,0.00,CLR,,0.00,WeatherDisplay:10.37,2013-03-24 16:45:00,
2013-03-24 08:55:00,-5.0,-10.4,29.96,North,0,0.0,0.0,77,0.00,CLR,,0.00,WeatherDisplay:10.37,2013-03-24 16:55:00,
2013-03-24 09:00:00,-4.3,-10.0,29.95,North,0,0.0,0.0,76,0.00,CLR,,0.00,WeatherDisplay:10.37,2013-03-24 17:00:00,
2013-03-24 09:10:00,-2.7,-9.5,29.95,North,0,0.0,0.0,72,0.00,CLR,,0.00,WeatherDisplay:10.37,2013-03-24 17:10:00,
2013-03-24 09:15:00,-2.2,-8.7,29.95,North,0,0.0,0.0,73,0.00,CLR,,0.00,WeatherDisplay:10.37,2013-03-24 17:15:00,
2013-03-24 09:20:00,-1.4,-8.3,29.95,North,0,1.0,0.0,72,0.00,CLR,,0.00,WeatherDisplay:10.37,2013-03-24 17:20:00,
2013-03-24 09:25:00,-0.3,-7.8,29.95,North,0,1.0,0.0,70,0.00,CLR,,0.00,WeatherDisplay:10.37,2013-03-24 17:25:00,
2013-03-24 09:30:00,1.1,-6.4,29.94,North,0,1.0,0.0,70,0.00,CLR,,0.00,WeatherDisplay:10.37,2013-03-24 17:30:00,
2013-03-24 09:35:00,2.4,-5.1,29.94,North,0,0.0,0.0,70,0.00,CLR,,0.00,WeatherDisplay:10.37,2013-03-24 17:35:00,
2013-03-24 09:40:00,4.2,-4.6,29.94,North,0,0.0,0.0,66,0.00,CLR,,0.00,WeatherDisplay:10.37,2013-03-24 17:40:00,
2013-03-24 09:45:00,5.7,-2.9,29.94,North,0,1.0,0.0,67,0.00,CLR,,0.00,WeatherDisplay:10.37,2013-03-24 17:45:00,
2013-03-24 09:50:00,6.9,1.2,29.94,North,0,0.0,0.0,77,0.00,CLR,,0.00,WeatherDisplay:10.37,2013-03-24 17:50:00,
2013-03-24 09:55:00,7.2,-1.2,29.94,North,0,1.0,0.0,68,0.00,CLR,,0.00,WeatherDisplay:10.37,2013-03-24 17:55:00,
2013-03-24 10:00:00,7.2,-1.1,29.94,North,0,0.0,0.0,68,0.00,CLR,,0.00,WeatherDisplay:10.37,2013-03-24 18:00:00,
2013-03-24 10:10:00,7.2,-2.8,29.94,North,0,1.0,0.0,63,0.00,CLR,,0.00,WeatherDisplay:10.37,2013-03-24 18:10:00,
2013-03-24 10:15:00,7.2,-1.2,29.94,North,0,1.0,0.0,68,0.00,CLR,,0.00,WeatherDisplay:10.37,2013-03-24 18:15:00,
2013-03-24 10:20:00,6.7,-2.6,29.93,North,0,1.0,0.0,65,0.00,CLR,,0.00,WeatherDisplay:10.37,2013-03-24 18:20:00,
2013-03-24 10:30:00,6.7,-2.6,29.93,North,0,1.0,0.0,65,0.00,CLR,,0.00,WeatherDisplay:10.37,2013-03-24 18:30:00,
2013-03-24 10:40:00,7.9,-2.5,29.93,North,0,1.0,0.0,62,0.00,CLR,,0.00,WeatherDisplay:10.37,2013-03-24 18:40:00,
2013-03-24 10:45:00,8.1,-2.6,29.93,North,0,1.0,0.0,61,0.00,CLR,,0.00,WeatherDisplay:10.37,2013-03-24 18:45:00,
2013-03-24 10:50:00,8.1,-2.3,29.93,North,0,1.0,0.0,62,0.00,CLR,,0.00,WeatherDisplay:10.37,2013-03-24 18:50:00,
2013-03-24 10:55:00,8.1,-3.3,29.93,North,0,1.0,0.0,59,0.00,CLR,,0.00,WeatherDisplay:10.37,2013-03-24 18:55:00,
2013-03-24 11:00:00,8.8,-3.0,29.93,North,0,2.0,0.0,58,0.00,CLR,,0.00,WeatherDisplay:10.37,2013-03-24 19:00:00,
2013-03-24 11:05:00,8.6,-2.4,29.93,North,0,2.0,0.0,60,0.00,CLR,,0.00,WeatherDisplay:10.37,2013-03-24 19:05:00,
2013-03-24 11:10:00,8.1,-4.4,29.93,North,0,2.0,0.0,56,0.00,CLR,,0.00,WeatherDisplay:10.37,2013-03-24 19:10:00,
2013-03-24 11:15:00,8.0,-4.1,29.93,North,0,3.0,0.0,57,0.00,CLR,,0.00,WeatherDisplay:10.37,2013-03-24 19:15:00,
2013-03-24 11:25:00,8.4,-3.3,29.93,North,0,1.0,0.0,58,0.00,CLR,,0.00,WeatherDisplay:10.37,2013-03-24 19:25:00,
2013-03-24 11:30:00,8.8,-3.4,29.93,North,0,0.0,0.0,57,0.00,CLR,,0.00,WeatherDisplay:10.37,2013-03-24 19:30:00,
2013-03-24 11:35:00,9.4,-3.6,29.93,North,0,0.0,0.0,55,0.00,CLR,,0.00,WeatherDisplay:10.37,2013-03-24 19:35:00,
2013-03-24 11:40:00,10.3,-2.0,29.92,North,0,0.0,0.0,57,0.00,CLR,,0.00,WeatherDisplay:10.37,2013-03-24 19:40:00,
2013-03-24 11:45:00,11.1,1.6,29.92,North,0,1.0,0.0,65,0.00,CLR,,0.00,WeatherDisplay:10.37,2013-03-24 19:45:00,
2013-03-24 11:50:00,11.3,-1.0,29.92,North,0,2.0,0.0,57,0.00,CLR,,0.00,WeatherDisplay:10.37,2013-03-24 19:50:00,
2013-03-24 12:00:00,10.5,-1.4,29.92,North,0,2.0,0.0,58,0.00,CLR,,0.00,WeatherDisplay:10.37,2013-03-24 20:00:00,
2013-03-24 12:10:00,9.9,-1.6,29.92,North,0,1.0,0.0,59,0.00,CLR,,0.00,WeatherDisplay:10.37,2013-03-24 20:10:00,
2013-03-24 12:15:00,10.0,-1.9,29.92,North,0,1.0,0.0,58,0.00,CLR,,0.00,WeatherDisplay:10.37,2013-03-24 20:15:00,
2013-03-24 12:25:00,10.4,-1.9,29.92,North,0,1.0,0.0,57,0.00,CLR,,0.00,WeatherDisplay:10.37,2013-03-24 20:25:00,
2013-03-24 12:30:00,10.8,-2.3,29.92,North,0,2.0,0.0,55,0.00,CLR,,0.00,WeatherDisplay:10.37,2013-03-24 20:30:00,
2013-03-24 12:35:00,10.9,-2.1,29.92,North,0,2.0,0.0,55,0.00,CLR,,0.00,WeatherDisplay:10.37,2013-03-24 20:35:00,
2013-03-24 12:40:00,10.8,-2.6,29.92,North,0,2.0,0.0,54,0.00,CLR,,0.00,WeatherDisplay:10.37,2013-03-24 20:40:00,
2013-03-24 12:45:00,11.0,-1.3,29.91,North,0,1.0,0.0,57,0.00,CLR,,0.00,WeatherDisplay:10.37,2013-03-24 20:45:00,
2013-03-24 12:55:00,12.0,-0.7,29.91,North,0,1.0,0.0,56,0.00,CLR,,0.00,WeatherDisplay:10.37,2013-03-24 20:55:00,
2013-03-24 13:00:00,12.6,-0.6,29.91,North,0,1.0,0.0,55,0.00,CLR,,0.00,WeatherDisplay:10.37,2013-03-24 21:00:00,
2013-03-24 13:10:00,13.1,1.8,29.91,North,0,0.0,0.0,60,0.00,CLR,,0.00,WeatherDisplay:10.37,2013-03-24 21:10:00,
2013-03-24 13:15:00,13.5,0.0,29.90,North,0,1.0,0.0,54,0.00,CLR,,0.00,WeatherDisplay:10.37,2013-03-24 21:15:00,
2013-03-24 13:25:00,13.4,1.0,29.90,North,0,2.0,0.0,57,0.00,CLR,,0.00,WeatherDisplay:10.37,2013-03-24 21:25:00,
2013-03-24 13:30:00,12.9,-0.2,29.90,North,0,1.0,0.0,55,0.00,CLR,,0.00,WeatherDisplay:10.37,2013-03-24 21:30:00,
2013-03-24 13:40:00,13.3,0.5,29.89,North,0,2.0,0.0,56,0.00,CLR,,0.00,WeatherDisplay:10.37,2013-03-24 21:40:00,
2013-03-24 13:45:00,13.1,-0.1,29.89,North,0,1.0,0.0,55,0.00,CLR,,0.00,WeatherDisplay:10.37,2013-03-24 21:45:00,
2013-03-24 13:55:00,13.8,1.7,29.89,North,0,1.0,0.0,58,0.00,CLR,,0.00,WeatherDisplay:10.37,2013-03-24 21:55:00,
2013-03-24 14:00:00,13.8,1.4,29.89,North,0,2.0,0.0,57,0.00,CLR,,0.00,WeatherDisplay:10.37,2013-03-24 22:00:00,
2013-03-24 14:10:00,13.5,0.7,29.89,North,0,2.0,0.0,56,0.00,CLR,,0.00,WeatherDisplay:10.37,2013-03-24 22:10:00,
2013-03-24 14:20:00,13.3,2.3,29.88,North,0,1.0,0.0,61,0.00,CLR,,0.00,WeatherDisplay:10.37,2013-03-24 22:20:00,
2013-03-24 14:25:00,13.7,0.9,29.88,North,0,0.0,0.0,56,0.00,CLR,,0.00,WeatherDisplay:10.37,2013-03-24 22:25:00,
2013-03-24 14:30:00,14.7,1.8,29.88,North,0,2.0,0.0,56,0.00,CLR,,0.00,WeatherDisplay:10.37,2013-03-24 22:30:00,
2013-03-24 14:35:00,15.4,2.8,29.88,North,0,1.0,0.0,57,0.00,CLR,,0.00,WeatherDisplay:10.37,2013-03-24 22:35:00,
2013-03-24 14:40:00,16.2,3.6,29.87,North,0,2.0,0.0,57,0.00,CLR,,0.00,WeatherDisplay:10.37,2013-03-24 22:40:00,
2013-03-24 14:45:00,16.2,3.2,29.87,North,0,2.0,0.0,56,0.00,CLR,,0.00,WeatherDisplay:10.37,2013-03-24 22:45:00,
2013-03-24 14:55:00,16.2,4.0,29.87,North,0,2.0,0.0,58,0.00,CLR,,0.00,WeatherDisplay:10.37,2013-03-24 22:55:00,
2013-03-24 15:00:00,16.2,3.2,29.87,North,0,1.0,0.0,56,0.00,CLR,,0.00,WeatherDisplay:10.37,2013-03-24 23:00:00,
2013-03-24 15:05:00,16.5,3.5,29.87,North,0,2.0,0.0,56,0.00,CLR,,0.00,WeatherDisplay:10.37,2013-03-24 23:05:00,
2013-03-24 15:10:00,16.2,1.6,29.87,North,0,1.0,0.0,52,0.00,CLR,,0.00,WeatherDisplay:10.37,2013-03-24 23:10:00,
2013-03-24 15:15:00,16.7,2.9,29.87,North,0,2.0,0.0,54,0.00,CLR,,0.00,WeatherDisplay:10.37,2013-03-24 23:15:00,
2013-03-24 15:25:00,16.9,3.1,29.86,North,0,1.0,0.0,54,0.00,CLR,,0.00,WeatherDisplay:10.37,2013-03-24 23:25:00,
2013-03-24 15:30:00,16.8,3.0,29.86,North,0,1.0,0.0,54,0.00,CLR,,0.00,WeatherDisplay:10.37,2013-03-24 23:30:00,
2013-03-24 15:40:00,16.7,2.5,29.86,North,0,2.0,0.0,53,0.00,CLR,,0.00,WeatherDisplay:10.37,2013-03-24 23:40:00,
2013-03-24 15:50:00,16.3,2.5,29.85,North,0,1.0,0.0,54,0.00,CLR,,0.00,WeatherDisplay:10.37,2013-03-24 23:50:00,
2013-03-24 16:00:00,16.0,2.2,29.85,North,0,2.0,0.0,54,0.00,CLR,,0.00,WeatherDisplay:10.37,2013-03-25 00:00:00,
2013-03-24 16:10:00,15.1,2.6,29.85,North,0,1.0,0.0,57,0.00,CLR,,0.00,WeatherDisplay:10.37,2013-03-25 00:10:00,
2013-03-24 16:15:00,14.8,1.9,29.85,North,0,2.0,0.0,56,0.00,CLR,,0.00,WeatherDisplay:10.37,2013-03-25 00:15:00,
2013-03-24 16:25:00,13.8,1.7,29.85,North,0,2.0,0.0,58,0.00,CLR,,0.00,WeatherDisplay:10.37,2013-03-25 00:25:00,
2013-03-24 16:30:00,13.2,0.0,29.85,North,0,2.0,0.0,55,0.00,CLR,,0.00,WeatherDisplay:10.37,2013-03-25 00:30:00,
2013-03-24 16:40:00,12.2,-0.9,29.85,North,0,1.0,0.0,55,0.00,CLR,,0.00,WeatherDisplay:10.37,2013-03-25 00:40:00,
2013-03-24 16:45:00,11.7,-0.7,29.85,North,0,1.0,0.0,57,0.00,CLR,,0.00,WeatherDisplay:10.37,2013-03-25 00:45:00,
2013-03-24 16:50:00,11.7,-0.3,29.85,North,0,1.0,0.0,58,0.00,CLR,,0.00,WeatherDisplay:10.37,2013-03-25 00:50:00,
2013-03-24 16:55:00,11.5,0.3,29.85,North,0,0.0,0.0,60,0.00,CLR,,0.00,WeatherDisplay:10.37,2013-03-25 00:55:00,
2013-03-24 17:00:00,11.5,0.3,29.85,North,0,0.0,0.0,60,0.00,CLR,,0.00,WeatherDisplay:10.37,2013-03-25 01:00:00,
2013-03-24 17:10:00,11.4,2.2,29.84,North,0,0.0,0.0,66,0.00,CLR,,0.00,WeatherDisplay:10.37,2013-03-25 01:10:00,
2013-03-24 17:15:00,11.3,0.4,29.84,North,0,0.0,0.0,61,0.00,CLR,,0.00,WeatherDisplay:10.37,2013-03-25 01:15:00,
2013-03-24 17:25:00,10.8,1.6,29.84,North,0,0.0,0.0,66,0.00,CLR,,0.00,WeatherDisplay:10.37,2013-03-25 01:25:00,
2013-03-24 17:30:00,10.8,1.6,29.84,North,0,0.0,0.0,66,0.00,CLR,,0.00,WeatherDisplay:10.37,2013-03-25 01:30:00,
2013-03-24 17:40:00,10.0,1.6,29.84,North,0,0.0,0.0,68,0.00,CLR,,0.00,WeatherDisplay:10.37,2013-03-25 01:40:00,
2013-03-24 17:45:00,9.9,1.7,29.84,North,0,0.0,0.0,69,0.00,CLR,,0.00,WeatherDisplay:10.37,2013-03-25 01:45:00,
2013-03-24 17:55:00,9.7,2.2,29.84,North,0,2.0,0.0,71,0.00,CLR,,0.00,WeatherDisplay:10.37,2013-03-25 01:55:00,
2013-03-24 18:00:00,9.7,2.2,29.84,North,0,1.0,0.0,71,0.00,CLR,,0.00,WeatherDisplay:10.37,2013-03-25 02:00:00,
2013-03-24 18:10:00,9.6,2.9,29.84,North,0,2.0,0.0,74,0.00,CLR,,0.00,WeatherDisplay:10.37,2013-03-25 02:10:00,
2013-03-24 18:15:00,9.3,3.0,29.84,North,0,3.0,0.0,75,0.00,CLR,,0.00,WeatherDisplay:10.37,2013-03-25 02:15:00,
2013-03-24 18:25:00,8.8,3.0,29.83,North,0,3.0,0.0,77,0.00,CLR,,0.00,WeatherDisplay:10.37,2013-03-25 02:25:00,
2013-03-24 18:30:00,8.4,3.5,29.83,North,0,2.0,0.0,80,0.00,CLR,,0.00,WeatherDisplay:10.37,2013-03-25 02:30:00,
2013-03-24 18:35:00,8.1,2.9,29.83,North,0,3.0,0.0,79,0.00,CLR,,0.00,WeatherDisplay:10.37,2013-03-25 02:35:00,
2013-03-24 18:40:00,7.9,2.7,29.83,North,0,2.0,0.0,79,0.00,CLR,,0.00,WeatherDisplay:10.37,2013-03-25 02:40:00,
2013-03-24 18:45:00,7.9,2.7,29.83,North,0,2.0,0.0,79,0.00,CLR,,0.00,WeatherDisplay:10.37,2013-03-25 02:45:00,
2013-03-24 18:50:00,7.9,3.0,29.83,North,0,3.0,0.0,80,0.00,CLR,,0.00,WeatherDisplay:10.37,2013-03-25 02:50:00,
2013-03-24 18:55:00,7.9,3.2,29.83,North,0,3.0,0.0,81,0.00,CLR,,0.00,WeatherDisplay:10.37,2013-03-25 02:55:00,
2013-03-24 19:00:00,7.7,3.1,29.83,North,0,2.0,0.0,81,0.00,CLR,,0.00,WeatherDisplay:10.37,2013-03-25 03:00:00,
2013-03-24 19:10:00,7.3,3.0,29.83,North,0,2.0,0.0,82,0.00,CLR,,0.00,WeatherDisplay:10.37,2013-03-25 03:10:00,
2013-03-24 19:15:00,7.2,2.6,29.83,North,0,2.0,0.0,81,0.00,CLR,,0.00,WeatherDisplay:10.37,2013-03-25 03:15:00,
2013-03-24 19:25:00,7.0,2.6,29.83,North,0,2.0,0.0,82,0.00,CLR,,0.00,WeatherDisplay:10.37,2013-03-25 03:25:00,
2013-03-24 19:30:00,6.9,2.8,29.83,North,0,3.0,0.0,83,0.00,CLR,,0.00,WeatherDisplay:10.37,2013-03-25 03:30:00,
2013-03-24 19:40:00,6.5,2.2,29.83,North,0,2.0,0.0,82,0.00,CLR,,0.00,WeatherDisplay:10.37,2013-03-25 03:40:00,
2013-03-24 19:45:00,6.3,2.2,29.83,North,0,3.0,0.0,83,0.00,CLR,,0.00,WeatherDisplay:10.37,2013-03-25 03:45:00,
2013-03-24 19:50:00,6.3,2.2,29.83,North,0,2.0,0.0,83,0.00,CLR,,0.00,WeatherDisplay:10.37,2013-03-25 03:50:00,
2013-03-24 19:55:00,6.2,2.1,29.83,North,0,2.0,0.0,83,0.00,CLR,,0.00,WeatherDisplay:10.37,2013-03-25 03:55:00,
2013-03-24 20:00:00,6.1,2.0,29.82,North,0,3.0,0.0,83,0.00,CLR,,0.00,WeatherDisplay:10.37,2013-03-25 04:00:00,
2013-03-24 20:05:00,5.9,1.8,29.82,North,0,2.0,0.0,83,0.00,CLR,,0.00,WeatherDisplay:10.37,2013-03-25 04:05:00,
2013-03-24 20:10:00,5.8,1.8,29.82,North,0,2.0,0.0,83,0.00,CLR,,0.00,WeatherDisplay:10.37,2013-03-25 04:10:00,
2013-03-24 20:15:00,5.8,3.2,29.82,North,0,2.0,0.0,89,0.00,CLR,,0.00,WeatherDisplay:10.37,2013-03-25 04:15:00,
2013-03-24 20:20:00,5.6,1.6,29.82,North,0,2.0,0.0,83,0.00,CLR,,0.00,WeatherDisplay:10.37,2013-03-25 04:20:00,
2013-03-24 20:25:00,5.4,1.3,29.82,North,0,2.0,0.0,83,0.00,CLR,,0.00,WeatherDisplay:10.37,2013-03-25 04:25:00,
2013-03-24 20:30:00,5.4,2.3,29.83,North,0,2.0,0.0,87,0.00,CLR,,0.00,WeatherDisplay:10.37,2013-03-25 04:30:00,
2013-03-24 20:40:00,5.2,1.4,29.82,North,0,1.0,0.0,84,0.00,CLR,,0.00,WeatherDisplay:10.37,2013-03-25 04:40:00,
2013-03-24 20:45:00,5.1,1.8,29.82,North,0,2.0,0.0,86,0.00,CLR,,0.00,WeatherDisplay:10.37,2013-03-25 04:45:00,
2013-03-24 20:55:00,5.1,1.3,29.82,North,0,2.0,0.0,84,0.00,CLR,,0.00,WeatherDisplay:10.37,2013-03-25 04:55:00,
2013-03-24 21:00:00,4.9,1.4,29.82,North,0,2.0,0.0,85,0.00,CLR,,0.00,WeatherDisplay:10.37,2013-03-25 05:00:00,
2013-03-24 21:10:00,4.8,1.3,29.82,North,0,2.0,0.0,85,0.00,CLR,,0.00,WeatherDisplay:10.37,2013-03-25 05:10:00,
2013-03-24 21:15:00,4.8,1.3,29.82,North,0,2.0,0.0,85,0.00,CLR,,0.00,WeatherDisplay:10.37,2013-03-25 05:15:00,
2013-03-24 21:25:00,4.6,1.0,29.82,North,0,2.0,0.0,85,0.00,CLR,,0.00,WeatherDisplay:10.37,2013-03-25 05:25:00,
2013-03-24 21:30:00,4.5,0.7,29.82,North,0,2.0,0.0,84,0.00,CLR,,0.00,WeatherDisplay:10.37,2013-03-25 05:30:00,
2013-03-24 21:40:00,4.5,0.9,29.81,North,0,2.0,0.0,85,0.00,CLR,,0.00,WeatherDisplay:10.37,2013-03-25 05:40:00,
2013-03-24 21:45:00,4.5,0.9,29.81,North,0,1.0,0.0,85,0.00,CLR,,0.00,WeatherDisplay:10.37,2013-03-25 05:45:00,
2013-03-24 21:55:00,4.5,0.9,29.81,North,0,1.0,0.0,85,0.00,CLR,,0.00,WeatherDisplay:10.37,2013-03-25 05:55:00,
2013-03-24 22:00:00,4.5,0.9,29.81,North,0,1.0,0.0,85,0.00,CLR,,0.00,WeatherDisplay:10.37,2013-03-25 06:00:00,
2013-03-24 22:10:00,4.5,0.7,29.81,North,0,1.0,0.0,84,0.00,CLR,,0.00,WeatherDisplay:10.37,2013-03-25 06:10:00,
2013-03-24 22:15:00,4.5,0.9,29.81,North,0,1.0,0.0,85,0.00,CLR,,0.00,WeatherDisplay:10.37,2013-03-25 06:15:00,
2013-03-24 22:20:00,4.4,0.9,29.81,North,0,2.0,0.0,85,0.00,CLR,,0.00,WeatherDisplay:10.37,2013-03-25 06:20:00,
2013-03-24 22:25:00,4.3,1.0,29.81,North,0,2.0,0.0,86,0.00,CLR,,0.00,WeatherDisplay:10.37,2013-03-25 06:25:00,
2013-03-24 22:30:00,4.1,0.3,29.81,North,0,1.0,0.0,84,0.00,CLR,,0.00,WeatherDisplay:10.37,2013-03-25 06:30:00,
2013-03-24 22:40:00,4.1,0.6,29.81,North,0,1.0,0.0,85,0.00,CLR,,0.00,WeatherDisplay:10.37,2013-03-25 06:40:00,
2013-03-24 22:45:00,4.3,0.5,29.81,North,0,1.0,0.0,84,0.00,CLR,,0.00,WeatherDisplay:10.37,2013-03-25 06:45:00,
2013-03-24 22:55:00,3.9,0.7,29.81,North,0,1.0,0.0,86,0.00,CLR,,0.00,WeatherDisplay:10.37,2013-03-25 06:55:00,
2013-03-24 23:00:00,3.9,0.4,29.80,North,0,1.0,0.0,85,0.00,CLR,,0.00,WeatherDisplay:10.37,2013-03-25 07:00:00,
2013-03-24 23:10:00,3.9,0.6,29.80,North,0,1.0,0.0,86,0.00,CLR,,0.00,WeatherDisplay:10.37,2013-03-25 07:10:00,
2013-03-24 23:15:00,3.9,0.6,29.81,North,0,2.0,0.0,86,0.00,CLR,,0.00,WeatherDisplay:10.37,2013-03-25 07:15:00,
2013-03-24 23:20:00,3.6,0.4,29.80,North,0,1.0,0.0,86,0.00,CLR,,0.00,WeatherDisplay:10.37,2013-03-25 07:20:00,
2013-03-24 23:30:00,3.6,0.3,29.80,North,0,1.0,0.0,86,0.00,CLR,,0.00,WeatherDisplay:10.37,2013-03-25 07:30:00,
2013-03-24 23:40:00,3.8,0.3,29.80,North,0,1.0,0.0,85,0.00,CLR,,0.00,WeatherDisplay:10.37,2013-03-25 07:40:00,
2013-03-24 23:50:00,3.6,0.1,29.79,North,0,1.0,0.0,85,0.00,CLR,,0.00,WeatherDisplay:10.37,2013-03-25 07:50:00,
2013-03-24 23:55:00,3.6,-0.2,29.79,North,0,0.0,0.0,84,0.00,CLR,,0.00,WeatherDisplay:10.37,2013-03-25 07:55:00,